FW8040 Weather Reports


Display with metric or nautical units.
time (UTC)temp
F
wind
direction
speed
MPH
gust
MPH
rain 1hr
in
rain 24hr
in
rain mn
in
humidity
%
barometer
mb
20210925001042 62 0 0.0 0.0 0.00 0.00 0.00 77 1017.8
20210925000545 62 0 0.0 0.0 0.00 0.00 0.00 77 1017.8
20210925000129 62 0 0.0 0.0 0.00 0.00 0.00 77 1017.8
20210924235543 62 0 0.0 0.0 0.00 0.00 0.00 76 1017.8
20210924235128 63 0 0.0 0.0 0.00 0.00 0.00 75 1017.7
20210924234609 63 0 0.0 0.0 0.00 0.00 0.00 73 1017.6
20210924234117 63 0 0.0 0.0 0.00 0.00 0.00 72 1017.6
20210924233606 64 0 0.0 0.0 0.00 0.00 0.00 72 1017.6
20210924233126 64 0 0.0 0.0 0.00 0.00 0.00 71 1017.6
20210924232543 64 0 0.0 0.0 0.00 0.00 0.00 70 1017.6
20210924232053 65 0 0.0 0.0 0.00 0.00 0.00 69 1017.6
20210924231621 65 0 0.0 0.0 0.00 0.00 0.00 68 1017.6
20210924231042 65 0 0.0 0.0 0.00 0.00 0.00 67 1017.7
20210924230542 66 0 0.0 0.0 0.00 0.00 0.00 66 1017.7
20210924230152 66 0 0.0 0.0 0.00 0.00 0.00 66 1017.7
20210924225551 67 0 0.0 0.0 0.00 0.00 0.00 65 1017.8
20210924225045 67 0 0.0 0.0 0.00 0.00 0.00 63 1017.8
20210924224552 68 0 0.0 0.0 0.00 0.00 0.00 63 1017.8
20210924224039 68 0 0.0 0.0 0.00 0.00 0.00 62 1017.8
20210924223546 68 0 0.0 0.0 0.00 0.00 0.00 61 1017.8
20210924223114 69 0 0.0 0.0 0.00 0.00 0.00 61 1017.7
20210924222604 69 0 0.0 0.0 0.00 0.00 0.00 57 1017.8
20210924222040 70 0 0.0 0.0 0.00 0.00 0.00 56 1017.8
20210924221659 70 0 0.0 0.0 0.00 0.00 0.00 54 1017.8
20210924221040 70 0 0.0 1.0 0.00 0.00 0.00 53 1017.7
20210924220610 70 0 0.0 1.0 0.00 0.00 0.00 54 1017.6
20210924220147 70 0 0.0 0.0 0.00 0.00 0.00 52 1017.6
20210924215607 70 0 0.0 0.0 0.00 0.00 0.00 53 1017.6
20210924215043 71 0 0.0 0.0 0.00 0.00 0.00 53 1017.6
20210924214619 71 0 0.0 0.0 0.00 0.00 0.00 50 1017.6
20210924214041 71 0 0.0 1.0 0.00 0.00 0.00 49 1017.5
20210924213540 71 0 0.0 1.0 0.00 0.00 0.00 52 1017.5
20210924213215 71 0 0.0 1.0 0.00 0.00 0.00 50 1017.4
20210924212543 71 0 0.0 1.0 0.00 0.00 0.00 50 1017.4
20210924212039 72 338 0.0 1.0 0.00 0.00 0.00 51 1017.4
20210924211715 72 342 0.0 2.0 0.00 0.00 0.00 49 1017.4
20210924211039 72 0 0.0 2.0 0.00 0.00 0.00 49 1017.3
20210924210543 72 0 0.0 1.0 0.00 0.00 0.00 48 1017.3
20210924210319 72 0 0.0 1.0 0.00 0.00 0.00 47 1017.3
20210924205541 72 0 0.0 1.0 0.00 0.00 0.00 49 1017.3
20210924205042 72 0 0.0 1.0 0.00 0.00 0.00 49 1017.3
20210924204637 72 0 0.0 2.0 0.00 0.00 0.00 50 1017.4
20210924204051 72 0 0.0 2.0 0.00 0.00 0.00 50 1017.4
20210924203542 72 349 0.0 1.0 0.00 0.00 0.00 50 1017.4
20210924203132 71 0 0.0 0.0 0.00 0.00 0.00 50 1017.4
20210924202541 71 0 0.0 1.0 0.00 0.00 0.00 51 1017.4
20210924202039 71 0 0.0 1.0 0.00 0.00 0.00 49 1017.3
20210924201603 71 0 0.0 1.0 0.00 0.00 0.00 50 1017.3
20210924201039 71 0 0.0 1.0 0.00 0.00 0.00 50 1017.3
20210924200547 72 0 0.0 3.0 0.00 0.00 0.00 52 1017.3
20210924200122 72 0 0.0 3.0 0.00 0.00 0.00 51 1017.3
20210924195547 71 0 0.0 1.0 0.00 0.00 0.00 49 1017.3
20210924195045 71 0 0.0 2.0 0.00 0.00 0.00 49 1017.3
20210924194653 72 0 0.0 3.0 0.00 0.00 0.00 49 1017.3
20210924194042 72 356 0.0 3.0 0.00 0.00 0.00 47 1017.4
20210924193542 72 341 0.0 1.0 0.00 0.00 0.00 48 1017.4
20210924193135 71 0 0.0 1.0 0.00 0.00 0.00 47 1017.3
20210924192540 71 0 0.0 2.0 0.00 0.00 0.00 47 1017.5
20210924192040 71 0 0.0 2.0 0.00 0.00 0.00 48 1017.5
20210924191617 71 0 0.0 1.0 0.00 0.00 0.00 47 1017.5
20210924191047 71 1 0.0 1.0 0.00 0.00 0.00 48 1017.5
20210924190545 71 0 0.0 1.0 0.00 0.00 0.00 47 1017.5
20210924190112 72 0 0.0 1.0 0.00 0.00 0.00 48 1017.6
20210924185540 71 0 0.0 1.0 0.00 0.00 0.00 51 1017.6
20210924185056 71 272 0.0 1.0 0.00 0.00 0.00 48 1017.6
20210924184722 71 0 0.0 1.0 0.00 0.00 0.00 50 1017.7
20210924184040 71 226 0.0 1.0 0.00 0.00 0.00 50 1017.8
20210924183545 70 0 0.0 1.0 0.00 0.00 0.00 49 1017.8
20210924183118 71 0 0.0 1.0 0.00 0.00 0.00 50 1017.9
20210924182542 71 257 0.0 1.0 0.00 0.00 0.00 49 1018.0
20210924182044 71 0 0.0 1.0 0.00 0.00 0.00 51 1018.1
20210924181640 71 0 0.0 2.0 0.00 0.00 0.00 50 1018.2
20210924181050 70 0 0.0 2.0 0.00 0.00 0.00 51 1018.2
20210924180543 70 0 0.0 1.0 0.00 0.00 0.00 51 1018.3
20210924180121 70 0 0.0 1.0 0.00 0.00 0.00 52 1018.4
20210924175540 70 0 0.0 2.0 0.00 0.00 0.00 53 1018.3
20210924175039 70 0 0.0 2.0 0.00 0.00 0.00 54 1018.4
20210924174604 69 0 0.0 2.0 0.00 0.00 0.00 55 1018.5
20210924174041 69 0 0.0 2.0 0.00 0.00 0.00 52 1018.5
20210924173608 69 0 0.0 1.0 0.00 0.00 0.00 51 1018.5
20210924173105 69 0 0.0 1.0 0.00 0.00 0.00 54 1018.6
20210924172539 70 0 0.0 2.0 0.00 0.00 0.00 54 1018.7
20210924172104 70 0 0.0 2.0 0.00 0.00 0.00 53 1019.0
20210924171608 70 0 0.0 1.0 0.00 0.00 0.00 53 1019.0
20210924171053 69 0 0.0 1.0 0.00 0.00 0.00 54 1019.1
20210924170549 69 0 0.0 1.0 0.00 0.00 0.00 55 1019.1
20210924170106 69 0 0.0 1.0 0.00 0.00 0.00 56 1019.3
20210924165548 69 0 0.0 4.0 0.00 0.00 0.00 55 1019.3
20210924165039 69 269 0.0 4.0 0.00 0.00 0.00 54 1019.4
20210924164622 69 0 0.0 1.0 0.00 0.00 0.00 54 1019.4
20210924164041 69 0 0.0 1.0 0.00 0.00 0.00 54 1019.5
20210924163541 69 0 0.0 2.0 0.00 0.00 0.00 55 1019.5
20210924163104 68 0 0.0 2.0 0.00 0.00 0.00 54 1019.5
20210924162555 69 347 0.0 1.0 0.00 0.00 0.00 53 1019.6
20210924162046 69 94 0.0 1.0 0.00 0.00 0.00 55 1019.6
20210924161631 68 0 0.0 1.0 0.00 0.00 0.00 55 1019.6
20210924161045 68 0 0.0 1.0 0.00 0.00 0.00 57 1019.6
20210924160551 68 338 0.0 3.0 0.00 0.00 0.00 57 1019.6
20210924160157 68 0 0.0 3.0 0.00 0.00 0.00 57 1019.6
20210924155540 67 350 0.0 3.0 0.00 0.00 0.00 58 1019.6
20210924155040 67 0 0.0 3.0 0.00 0.00 0.00 57 1019.8
20210924154558 67 238 0.0 2.0 0.00 0.00 0.00 59 1019.8
20210924154040 67 328 0.0 2.0 0.00 0.00 0.00 59 1019.8
20210924153543 67 266 0.0 1.0 0.00 0.00 0.00 59 1019.9
20210924153126 67 325 0.0 1.0 0.00 0.00 0.00 58 1020.0
20210924152540 66 0 0.0 2.0 0.00 0.00 0.00 61 1020.0
20210924152039 66 0 0.0 3.0 0.00 0.00 0.00 60 1020.0
20210924151647 66 330 0.0 3.0 0.00 0.00 0.00 60 1020.0
20210924151044 66 0 0.0 3.0 0.00 0.00 0.00 60 1020.0
20210924150545 65 328 0.0 2.0 0.00 0.00 0.00 62 1020.0
20210924150227 65 0 0.0 2.0 0.00 0.00 0.00 61 1020.0
20210924145543 65 342 0.0 1.0 0.00 0.00 0.00 62 1020.0
20210924145040 64 0 0.0 2.0 0.00 0.00 0.00 62 1020.0
20210924144658 64 0 0.0 2.0 0.00 0.00 0.00 63 1019.9
20210924144106 64 0 0.0 2.0 0.00 0.00 0.00 63 1019.9
20210924143542 64 325 1.0 2.0 0.00 0.00 0.00 63 1019.8
20210924143159 64 322 0.0 2.0 0.00 0.00 0.00 65 1019.7
20210924142539 63 330 0.0 1.0 0.00 0.00 0.00 67 1019.8
20210924142039 63 0 0.0 1.0 0.00 0.00 0.00 68 1019.7
20210924141616 63 0 0.0 1.0 0.00 0.00 0.00 68 1019.6
20210924141044 62 0 0.0 1.0 0.00 0.00 0.00 69 1019.7
20210924140553 62 231 0.0 2.0 0.00 0.00 0.00 69 1019.6
20210924140136 62 0 0.0 2.0 0.00 0.00 0.00 69 1019.6
20210924135600 61 0 0.0 2.0 0.00 0.00 0.00 70 1019.6
20210924135043 61 339 0.0 2.0 0.00 0.00 0.00 70 1019.5
20210924134759 61 0 0.0 1.0 0.00 0.00 0.00 72 1019.5
20210924134043 60 319 0.0 1.0 0.00 0.00 0.00 72 1019.5
20210924133558 60 0 0.0 1.0 0.00 0.00 0.00 74 1019.5
20210924133111 59 346 0.0 1.0 0.00 0.00 0.00 74 1019.4
20210924132545 59 335 0.0 1.0 0.00 0.00 0.00 76 1019.3
20210924132040 58 0 0.0 1.0 0.00 0.00 0.00 75 1019.3
20210924131630 58 0 0.0 0.0 0.00 0.00 0.00 78 1019.3
20210924131044 58 0 0.0 0.0 0.00 0.00 0.00 78 1019.2
20210924130544 57 0 0.0 0.0 0.00 0.00 0.00 78 1019.1
20210924130117 57 0 0.0 0.0 0.00 0.00 0.00 78 1019.1
20210924125545 57 0 0.0 0.0 0.00 0.00 0.00 78 1019.1
20210924125043 56 0 0.0 0.0 0.00 0.00 0.00 79 1019.1
20210924124652 56 0 0.0 0.0 0.00 0.00 0.00 79 1019.1
20210924124041 56 0 0.0 0.0 0.00 0.00 0.00 80 1019.1
20210924123541 55 0 0.0 0.0 0.00 0.00 0.00 80 1019.0
20210924123211 55 0 0.0 0.0 0.00 0.00 0.00 80 1019.0
20210924122546 55 0 0.0 0.0 0.00 0.00 0.00 81 1019.0
20210924122043 55 0 0.0 0.0 0.00 0.00 0.00 82 1019.0
20210924121614 54 0 0.0 0.0 0.00 0.00 0.00 82 1019.0
20210924121040 54 0 0.0 0.0 0.00 0.00 0.00 82 1019.1
20210924120541 54 0 0.0 0.0 0.00 0.00 0.00 83 1019.0
20210924120119 54 0 0.0 0.0 0.00 0.00 0.00 83 1018.9
20210924115542 53 0 0.0 0.0 0.00 0.00 0.00 83 1018.9
20210924115047 53 0 0.0 0.0 0.00 0.00 0.00 84 1018.8
20210924114641 53 0 0.0 0.0 0.00 0.00 0.00 85 1018.8
20210924114039 53 0 0.0 0.0 0.00 0.00 0.00 85 1018.7
20210924113543 53 0 0.0 0.0 0.00 0.00 0.00 85 1018.8
20210924113133 53 0 0.0 0.0 0.00 0.00 0.00 85 1018.7
20210924112543 53 0 0.0 0.0 0.00 0.00 0.00 85 1018.7
20210924112041 53 0 0.0 0.0 0.00 0.00 0.00 85 1018.6
20210924111618 53 0 0.0 0.0 0.00 0.00 0.00 86 1018.5
20210924111050 53 0 0.0 0.0 0.00 0.00 0.00 86 1018.4
20210924110542 53 0 0.0 0.0 0.00 0.00 0.00 86 1018.2
20210924110349 52 0 0.0 0.0 0.00 0.00 0.00 86 1018.2
20210924105544 52 0 0.0 0.0 0.00 0.00 0.00 87 1018.2
20210924105040 52 0 0.0 0.0 0.00 0.00 0.00 87 1018.2
20210924104607 52 0 0.0 0.0 0.00 0.00 0.00 87 1018.2
20210924104040 52 0 0.0 0.0 0.00 0.00 0.00 87 1018.2
20210924103549 52 0 0.0 0.0 0.00 0.00 0.00 88 1018.1
20210924103215 52 0 0.0 0.0 0.00 0.00 0.00 88 1018.0
20210924102542 52 0 0.0 0.0 0.00 0.00 0.00 88 1018.0
20210924102043 52 0 0.0 0.0 0.00 0.00 0.00 88 1017.9
20210924101617 53 0 0.0 0.0 0.00 0.00 0.00 87 1017.9
20210924101041 53 0 0.0 0.0 0.00 0.00 0.00 87 1017.8
20210924100544 53 0 0.0 0.0 0.00 0.00 0.00 87 1017.8
20210924100126 53 0 0.0 0.0 0.00 0.00 0.00 87 1017.7
20210924095553 53 0 0.0 0.0 0.00 0.00 0.00 86 1017.6
20210924095051 53 0 0.0 0.0 0.00 0.00 0.00 86 1017.7
20210924094635 53 0 0.0 0.0 0.00 0.00 0.00 86 1017.5
20210924094040 53 0 0.0 0.0 0.00 0.00 0.00 86 1017.5
20210924093544 54 0 0.0 0.0 0.00 0.00 0.00 86 1017.5
20210924093058 54 0 0.0 0.0 0.00 0.00 0.00 86 1017.5
20210924084102 54 0 0.0 0.0 0.00 0.00 0.00 86 1016.7
20210924083541 54 0 0.0 0.0 0.00 0.00 0.00 87 1016.7
20210924083138 54 0 0.0 0.0 0.00 0.00 0.00 87 1016.6
20210924082544 54 0 0.0 0.0 0.00 0.00 0.00 87 1016.7
20210924082043 54 0 0.0 0.0 0.00 0.00 0.00 87 1016.6
20210924081551 54 0 0.0 0.0 0.00 0.00 0.00 87 1016.6
20210924081040 54 0 0.0 0.0 0.00 0.00 0.00 88 1016.5
20210924080542 54 0 0.0 0.0 0.00 0.00 0.00 87 1016.4
20210924080121 54 0 0.0 0.0 0.00 0.00 0.00 87 1016.4
20210924075545 54 0 0.0 0.0 0.00 0.00 0.00 87 1016.3
20210924075050 54 0 0.0 0.0 0.00 0.00 0.00 87 1016.3
20210924074648 54 0 0.0 0.0 0.00 0.00 0.00 87 1016.2
20210924074042 54 0 0.0 0.0 0.00 0.00 0.00 87 1016.2
20210924073546 54 0 0.0 0.0 0.00 0.00 0.00 87 1016.1
20210924073102 54 0 0.0 0.0 0.00 0.00 0.00 87 1016.2
20210924072543 54 0 0.0 0.0 0.00 0.00 0.00 87 1016.2
20210924072041 54 0 0.0 0.0 0.00 0.00 0.00 87 1016.2
20210924071559 54 0 0.0 0.0 0.00 0.00 0.00 88 1016.2
20210924071040 54 0 0.0 0.0 0.00 0.00 0.00 88 1016.2
20210924070542 54 0 0.0 0.0 0.00 0.00 0.00 88 1016.2
20210924070128 54 0 0.0 0.0 0.00 0.00 0.00 88 1016.2
20210924065543 54 0 0.0 0.0 0.00 0.00 0.00 89 1016.2
20210924065040 55 0 0.0 0.0 0.00 0.00 0.00 89 1016.1
20210924064622 55 0 0.0 0.0 0.00 0.00 0.00 88 1016.2
20210924064043 55 0 0.0 0.0 0.00 0.00 0.00 88 1016.1
20210924063543 55 0 0.0 0.0 0.00 0.00 0.00 89 1016.1
20210924063058 55 0 0.0 0.0 0.00 0.00 0.00 89 1016.1
20210924062543 55 0 0.0 0.0 0.00 0.00 0.00 89 1016.0
20210924062052 55 0 0.0 0.0 0.00 0.00 0.00 89 1016.0
20210924061624 55 0 0.0 0.0 0.00 0.00 0.00 88 1015.9
20210924061043 55 0 0.0 0.0 0.00 0.00 0.00 88 1016.0
20210924060543 55 0 0.0 0.0 0.00 0.00 0.00 88 1016.0
20210924060137 55 0 0.0 0.0 0.00 0.00 0.00 88 1016.1
20210924055544 55 0 0.0 0.0 0.00 0.14 0.00 88 1016.1
20210924055047 55 0 0.0 0.0 0.00 0.14 0.00 88 1016.1
20210924054603 55 0 0.0 0.0 0.00 0.14 0.00 88 1016.1
20210924054043 55 0 0.0 0.0 0.00 0.14 0.00 88 1016.1
20210924053550 55 0 0.0 0.0 0.00 0.14 0.00 89 1016.1
20210924053104 55 0 0.0 0.0 0.00 0.14 0.00 89 1016.2
20210924052601 55 0 0.0 0.0 0.00 0.14 0.00 89 1016.2
20210924052135 55 0 0.0 0.0 0.00 0.14 0.00 89 1016.1
20210924051650 55 0 0.0 0.0 0.00 0.14 0.00 89 1016.1
20210924051043 55 0 0.0 0.0 0.00 0.14 0.00 90 1016.2
20210924050609 55 0 0.0 0.0 0.00 0.14 0.00 89 1016.2
20210924050142 55 0 0.0 0.0 0.00 0.14 0.00 89 1016.2
20210924045546 55 0 0.0 0.0 0.00 0.27 0.00 90 1016.2
20210924045045 55 0 0.0 0.0 0.00 0.27 0.00 90 1016.2
20210924044633 56 0 0.0 0.0 0.00 0.27 0.00 89 1016.2
20210924044043 56 0 0.0 0.0 0.00 0.27 0.00 89 1016.3
20210924043544 56 0 0.0 0.0 0.00 0.27 0.00 89 1016.3
20210924043118 56 0 0.0 0.0 0.00 0.27 0.00 88 1016.4
20210924042547 56 0 0.0 0.0 0.00 0.27 0.00 87 1016.4
20210924042043 57 0 0.0 0.0 0.00 0.27 0.00 87 1016.4
20210924041604 57 0 0.0 0.0 0.00 0.27 0.00 87 1016.4
20210924041052 57 0 0.0 0.0 0.00 0.27 0.00 86 1016.4
20210924040600 57 0 0.0 0.0 0.00 0.27 0.00 86 1016.4
20210924040132 57 0 0.0 0.0 0.00 0.27 0.00 86 1016.5
20210924035543 57 0 0.0 0.0 0.00 0.37 0.27 86 1016.4
20210924035043 57 0 0.0 0.0 0.00 0.37 0.27 85 1016.4
20210924034631 57 0 0.0 0.0 0.00 0.37 0.27 85 1016.4
20210924034051 58 0 0.0 0.0 0.00 0.37 0.27 85 1016.3
20210924033541 58 0 0.0 0.0 0.00 0.37 0.27 84 1016.2
20210924033121 58 0 0.0 0.0 0.00 0.37 0.27 83 1016.2
20210924032542 58 0 0.0 0.0 0.00 0.37 0.27 83 1016.2
20210924032119 58 0 0.0 0.0 0.00 0.37 0.27 83 1016.2
20210924031710 58 0 0.0 0.0 0.00 0.37 0.27 83 1016.1
20210924031042 58 0 0.0 0.0 0.00 0.37 0.27 82 1016.0
20210924030545 59 0 0.0 0.0 0.00 0.37 0.27 82 1015.9
20210924030210 59 0 0.0 0.0 0.00 0.37 0.27 82 1015.9
20210924025556 59 0 0.0 0.0 0.00 0.37 0.27 81 1015.9
20210924025043 59 0 0.0 0.0 0.00 0.37 0.27 80 1015.9
20210924024614 60 0 0.0 0.0 0.00 0.37 0.27 80 1015.9
20210924024043 60 0 0.0 0.0 0.00 0.37 0.27 80 1015.9
20210924023543 60 0 0.0 0.0 0.00 0.37 0.27 79 1015.9
20210924023141 60 0 0.0 0.0 0.00 0.37 0.27 78 1015.8
20210924022541 60 0 0.0 0.0 0.00 0.37 0.27 79 1015.9
20210924022042 60 0 0.0 0.0 0.00 0.37 0.27 78 1015.8
20210924021700 61 0 0.0 0.0 0.00 0.37 0.27 78 1015.8
20210924021054 61 0 0.0 0.0 0.00 0.37 0.27 77 1015.8
20210924020541 61 0 0.0 0.0 0.00 0.37 0.27 76 1015.7
20210924020111 61 0 0.0 0.0 0.00 0.37 0.27 76 1015.6
20210924015540 62 0 0.0 0.0 0.00 0.37 0.27 75 1015.5
20210924015042 62 0 0.0 0.0 0.00 0.37 0.27 76 1015.5
20210924014651 62 0 0.0 0.0 0.00 0.37 0.27 75 1015.4
20210924014053 62 0 0.0 0.0 0.00 0.37 0.27 76 1015.5
20210924013541 62 0 0.0 0.0 0.00 0.37 0.27 74 1015.4
20210924013048 63 0 0.0 0.0 0.00 0.37 0.27 74 1015.4
20210924012543 63 0 0.0 0.0 0.00 0.37 0.27 74 1015.4
20210924012041 63 0 0.0 0.0 0.00 0.37 0.27 74 1015.4
20210924011614 63 0 0.0 0.0 0.00 0.37 0.27 74 1015.3
20210924011105 63 0 0.0 0.0 0.00 0.37 0.27 76 1015.3
20210924010546 63 0 0.0 0.0 0.00 0.37 0.27 74 1015.2
20210924010124 63 0 0.0 0.0 0.00 0.37 0.27 75 1015.3
20210924005549 63 0 0.0 0.0 0.00 0.37 0.27 75 1015.3
20210924005100 63 0 0.0 0.0 0.00 0.37 0.27 76 1015.2
20210924004623 64 0 0.0 0.0 0.00 0.37 0.27 76 1015.1
20210924004042 64 0 0.0 0.0 0.00 0.37 0.27 76 1015.1
20210924003544 64 0 0.0 0.0 0.00 0.37 0.27 76 1015.0
20210924003140 64 0 0.0 0.0 0.00 0.37 0.27 75 1014.9
20210924002548 64 0 0.0 0.0 0.00 0.37 0.27 75 1014.9
20210924002042 65 0 0.0 0.0 0.00 0.37 0.27 76 1014.8
20210924001629 65 0 0.0 0.0 0.00 0.37 0.27 74 1014.7